This is the latest recevied weather packets stored in our database for station/object W7TTE. If no packets are shown the sender has not sent any weather packets the latest 10 day(s).
| Time | Temp. | Humidity | Pressure | Rain* | Wind** | Luminosity | Snow |
|---|---|---|---|---|---|---|---|
| 1777844237 | 36.67° C | 15% | 1009.7 hPa | 0 mm | - | 636 W/m² | - |
| 1777843934 | 37.22° C | 15% | 1009.7 hPa | 0 mm | - | 651 W/m² | - |
| 1777843631 | 36.11° C | 15% | 1009.9 hPa | 0 mm | - | 658 W/m² | - |
| 1777843328 | 36.11° C | 16% | 1010.3 hPa | 0 mm | - | 673 W/m² | - |
| 1777843026 | 36.11° C | 16% | 1010.2 hPa | 0 mm | - | 682 W/m² | - |
| 1777842721 | 36.11° C | 15% | 1010.1 hPa | 0 mm | - | 692 W/m² | - |
| 1777842418 | 35.56° C | 16% | 1010.3 hPa | 0 mm | - | 701 W/m² | - |
| 1777842114 | 36.11° C | 15% | 1010.5 hPa | 0 mm | - | 710 W/m² | - |
| 1777841810 | 36.67° C | 15% | 1010.6 hPa | 0 mm | - | 716 W/m² | - |
| 1777841506 | 36.11° C | 15% | 1010.2 hPa | 0 mm | - | 725 W/m² | - |
| 1777841203 | 35.56° C | 15% | 1010.8 hPa | 0 mm | - | 735 W/m² | - |
| 1777840901 | 35.56° C | 15% | 1010.9 hPa | 0 mm | - | 741 W/m² | - |
| 1777840598 | 36.11° C | 16% | 1010.8 hPa | 0 mm | - | 748 W/m² | - |
| 1777840295 | 35.56° C | 16% | 1011 hPa | 0 mm | - | 754 W/m² | - |
| 1777839993 | 36.11° C | 16% | 1011 hPa | 0 mm | - | 759 W/m² | - |
| 1777839691 | 35.56° C | 16% | 1011.2 hPa | 0 mm | - | 767 W/m² | - |
| 1777839388 | 35.56° C | 16% | 1011.1 hPa | 0 mm | - | 769 W/m² | - |
| 1777839085 | 35° C | 16% | 1011 hPa | 0 mm | - | 775 W/m² | - |
| 1777838781 | 35° C | 16% | 1011.1 hPa | 0 mm | - | 780 W/m² | - |
| 1777838478 | 35° C | 17% | 1011.5 hPa | 0 mm | - | 785 W/m² | - |
| 1777838175 | 35.56° C | 16% | 1011.5 hPa | 0 mm | - | 785 W/m² | - |
| 1777837872 | 35.56° C | 17% | 1011.4 hPa | 0 mm | - | 785 W/m² | - |
| 1777837569 | 35.56° C | 17% | 1011.6 hPa | 0 mm | - | 786 W/m² | - |
| 1777837264 | 35° C | 17% | 1011.7 hPa | 0 mm | - | 791 W/m² | - |
| 1777836961 | 35° C | 17% | 1011.8 hPa | 0 mm | - | 792 W/m² | - |
* Rain latest hour (hover to see other rain measurements)
** Current wind speed in m/s (hover to see current wind gust speed)